Weather History for Coeur d'Alene, ID

Change the Weather History Date:

Wednesday, October 3, 2012

  Actual Average Record
Temperature  
Mean Temperature 45 °F -  
Max Temperature 57 °F 62 °F 78 °F (2003)
Min Temperature 33 °F 38 °F 24 °F (1999)
Degree Days  
Heating Degree Days 20    
Moisture  
Dew Point 31 °F    
Average Humidity 64    
Maximum Humidity 100    
Minimum Humidity 31    
Precipitation  
Precipitation 0.02 in - - ()
Sea Level Pressure  
Sea Level Pressure 30.36 in    
Wind  
Wind Speed 10 mph (NE)    
Max Wind Speed 20 mph    
Max Gust Speed 26 mph    
Visibility 10 miles    
Events      
Averages and records for this station are not official NWS values.
T = Trace of Precipitation, MM = Missing Value Source: NWS Daily Summary

Daily Weather History Graph

Daily Weather History Graph

Search for Another Location

Airport:

Trip Planner

Search our weather history database for the weather conditions in past years. The results will help you decide how hot, cold, wet, or windy it might be!

Date:

Astronomy

Oct. 03, 2012 Rise Set
Actual Time 6:49 AM PDT 6:21 PM PDT
Civil Twilight 6:19 AM PDT 6:52 PM PDT
Nautical Twilight 5:43 AM PDT 7:27 PM PDT
Astronomical Twilight 5:06 AM PDT 8:04 PM PDT
Moon 7:58 PM PDT (10/3) 10:35 AM PDT (10/3)
Length of Visible Light 12h 32m
Length of Day
11h 31m
Waning Gibbous, 88% of the Moon is Illuminated
Oct 3
Waning Gibbous
Oct 8
Last Quarter
Oct 15
New
Oct 21
First Quarter
Oct 29
Full

Hourly Weather History & Observations

Time (PDT) Temp. Windchill Dew Point Humidity Pressure Visibility Wind Dir Wind Speed Gust Speed Precip Events Conditions
12:15 AM 42.8 °F 34.8 °F 17.6 °F 36% 30.18 in 10.0 mi NNE 17.3 mph - N/A   Clear
12:35 AM 42.8 °F 34.3 °F 26.6 °F 53% 30.20 in 10.0 mi North 19.6 mph 24.2 mph N/A   Clear
12:55 AM 42.8 °F 34.3 °F 30.2 °F 61% 30.22 in 10.0 mi NNE 19.6 mph 26.5 mph N/A   Partly Cloudy
1:15 AM 37.4 °F 29.3 °F 32.0 °F 81% 30.21 in 7.0 mi NNE 12.7 mph - 0.02 in   Overcast
1:35 AM 37.4 °F 30.3 °F 33.8 °F 87% 30.23 in 10.0 mi ENE 10.4 mph - 0.02 in   Overcast
1:55 AM 35.6 °F 32.8 °F 33.8 °F 93% 30.23 in 10.0 mi ENE 3.5 mph - 0.02 in   Scattered Clouds
2:15 AM 37.4 °F - 33.8 °F 87% 30.25 in 10.0 mi Calm Calm - N/A   Scattered Clouds
2:35 AM 37.4 °F 33.8 °F 33.8 °F 87% 30.26 in 10.0 mi NNE 4.6 mph - N/A   Partly Cloudy
2:55 AM 37.4 °F 33.8 °F 33.8 °F 87% 30.27 in 10.0 mi NE 4.6 mph - N/A   Clear
3:15 AM 37.4 °F 32.8 °F 33.8 °F 87% 30.28 in 10.0 mi NE 5.8 mph - N/A   Clear
3:35 AM 35.6 °F 29.2 °F 33.8 °F 93% 30.29 in 10.0 mi ENE 8.1 mph - N/A   Clear
3:55 AM 35.6 °F 29.9 °F 33.8 °F 93% 30.30 in 10.0 mi ENE 6.9 mph - N/A   Clear
4:15 AM 33.8 °F - 33.8 °F 100% 30.32 in 10.0 mi Calm Calm - N/A   Clear
4:35 AM 33.8 °F - 33.8 °F 100% 30.32 in 10.0 mi Calm Calm - N/A   Clear
4:55 AM 33.8 °F 30.8 °F 30.2 °F 87% 30.33 in 10.0 mi WNW 3.5 mph - N/A   Clear
5:15 AM 35.6 °F - 32.0 °F 87% 30.34 in 10.0 mi Calm Calm - N/A   Clear
5:35 AM 35.6 °F 32.8 °F 33.8 °F 93% 30.34 in 10.0 mi North 3.5 mph - N/A   Clear
5:55 AM 33.8 °F - 33.8 °F 100% 30.35 in 10.0 mi Calm Calm - N/A   Clear
6:15 AM 33.8 °F 28.6 °F 30.2 °F 87% 30.36 in 10.0 mi ENE 5.8 mph - N/A   Clear
6:35 AM 33.8 °F 26.4 °F 32.0 °F 93% 30.36 in 10.0 mi ENE 9.2 mph - N/A   Clear
6:55 AM 33.8 °F 29.6 °F 30.2 °F 87% 30.37 in 10.0 mi ENE 4.6 mph - N/A   Clear
7:15 AM 33.8 °F 27.0 °F 30.2 °F 87% 30.37 in 10.0 mi ENE 8.1 mph - N/A   Clear
7:35 AM 35.6 °F 29.9 °F 32.0 °F 87% 30.38 in 10.0 mi ENE 6.9 mph - N/A   Clear
7:55 AM 35.6 °F 29.2 °F 33.8 °F 93% 30.39 in 10.0 mi ENE 8.1 mph - N/A   Clear
8:15 AM 37.4 °F 29.8 °F 35.6 °F 93% 30.40 in 10.0 mi NE 11.5 mph - N/A   Clear
8:35 AM 39.2 °F 33.0 °F 35.6 °F 87% 30.41 in 10.0 mi ENE 9.2 mph - N/A   Clear
8:55 AM 42.8 °F 37.0 °F 35.6 °F 76% 30.42 in 10.0 mi NE 10.4 mph - N/A   Clear
9:15 AM 44.6 °F 38.8 °F 37.4 °F 76% 30.42 in 10.0 mi NE 11.5 mph - N/A   Clear
9:35 AM 44.6 °F 38.1 °F 37.4 °F 76% 30.43 in 10.0 mi NE 13.8 mph - N/A   Clear
9:55 AM 46.4 °F 40.4 °F 37.4 °F 71% 30.43 in 10.0 mi NE 13.8 mph - N/A   Clear
10:15 AM 46.4 °F 40.4 °F 37.4 °F 71% 30.43 in 10.0 mi NNE 13.8 mph - N/A   Clear
10:55 AM 50.0 °F - 35.6 °F 58% 30.44 in 10.0 mi NNE 15.0 mph - N/A   Clear
11:15 AM 51.8 °F - 33.8 °F 50% 30.43 in 10.0 mi NE 13.8 mph - N/A   Clear
11:35 AM 51.8 °F - 33.8 °F 50% 30.43 in 10.0 mi NNE 11.5 mph - N/A   Clear
11:55 AM 53.6 °F - 33.8 °F 47% 30.43 in 10.0 mi NNE 13.8 mph - N/A   Clear
12:15 PM 53.6 °F - 32.0 °F 44% 30.43 in 10.0 mi NE 12.7 mph - N/A   Clear
12:35 PM 53.6 °F - 30.2 °F 41% 30.42 in 10.0 mi NE 13.8 mph - N/A   Clear
12:55 PM 55.4 °F - 30.2 °F 38% 30.42 in 10.0 mi NNE 10.4 mph - N/A   Clear
1:15 PM 55.4 °F - 30.2 °F 38% 30.41 in 10.0 mi NNE 9.2 mph - N/A   Clear
1:35 PM 55.4 °F - 30.2 °F 38% 30.40 in 10.0 mi North 10.4 mph - N/A   Clear
1:55 PM 55.4 °F - 30.2 °F 38% 30.40 in 10.0 mi NNE 12.7 mph 17.3 mph N/A   Clear
2:15 PM 57.2 °F - 30.2 °F 36% 30.39 in 10.0 mi NNE 12.7 mph - N/A   Clear
2:35 PM 57.2 °F - 28.4 °F 33% 30.39 in 10.0 mi NNE 11.5 mph - N/A   Partly Cloudy
2:55 PM 57.2 °F - 30.2 °F 36% 30.38 in 10.0 mi NNE 9.2 mph 17.3 mph N/A   Partly Cloudy
3:15 PM 57.2 °F - 28.4 °F 33% 30.38 in 10.0 mi NE 12.7 mph - N/A   Scattered Clouds
3:55 PM 57.2 °F - 28.4 °F 33% 30.38 in 10.0 mi NNE 13.8 mph - N/A   Partly Cloudy
4:15 PM 57.2 °F - 26.6 °F 31% 30.38 in 10.0 mi NNE 12.7 mph - N/A   Scattered Clouds
4:35 PM 57.2 °F - 26.6 °F 31% 30.37 in 10.0 mi NE 12.7 mph 17.3 mph N/A   Partly Cloudy
4:55 PM 55.4 °F - 26.6 °F 33% 30.37 in 10.0 mi NNE 12.7 mph - N/A   Clear
5:15 PM 55.4 °F - 28.4 °F 36% 30.37 in 10.0 mi NE 12.7 mph - N/A   Partly Cloudy
5:35 PM 55.4 °F - 26.6 °F 33% 30.37 in 10.0 mi ENE 10.4 mph - N/A   Clear
5:55 PM 53.6 °F - 26.6 °F 35% 30.37 in 10.0 mi ENE 8.1 mph - N/A   Clear
6:15 PM 50.0 °F - 26.6 °F 40% 30.37 in 10.0 mi NE 8.1 mph - N/A   Clear
6:35 PM 48.2 °F - 26.6 °F 43% 30.37 in 10.0 mi NE 8.1 mph - N/A   Clear
6:55 PM 48.2 °F - 28.4 °F 46% 30.38 in 10.0 mi NNE 10.4 mph - N/A   Clear
7:15 PM 46.4 °F 43.5 °F 28.4 °F 50% 30.38 in 10.0 mi NE 5.8 mph - N/A   Clear
7:35 PM 42.8 °F 39.3 °F 28.4 °F 57% 30.38 in 10.0 mi ENE 5.8 mph - N/A   Clear
7:55 PM 42.8 °F 36.6 °F 30.2 °F 61% 30.38 in 10.0 mi NNE 11.5 mph - N/A   Clear
8:15 PM 42.8 °F 38.6 °F 30.2 °F 61% 30.38 in 10.0 mi NE 6.9 mph - N/A   Clear
8:35 PM 42.8 °F 37.5 °F 30.2 °F 61% 30.37 in 10.0 mi NE 9.2 mph - N/A   Clear
8:55 PM 39.2 °F 32.5 °F 28.4 °F 65% 30.37 in 10.0 mi North 10.4 mph - N/A   Clear
9:15 PM 39.2 °F 32.0 °F 28.4 °F 65% 30.37 in 10.0 mi NNE 11.5 mph - N/A   Clear
9:35 PM 39.2 °F 32.5 °F 28.4 °F 65% 30.37 in 10.0 mi NNE 10.4 mph - N/A   Clear
9:55 PM 37.4 °F 30.3 °F 28.4 °F 70% 30.36 in 10.0 mi NNE 10.4 mph - N/A   Clear
10:15 PM 37.4 °F 29.8 °F 26.6 °F 65% 30.36 in 10.0 mi North 11.5 mph - N/A   Clear
10:35 PM 39.2 °F 32.5 °F 30.2 °F 70% 30.37 in 10.0 mi NNE 10.4 mph - N/A   Clear
10:55 PM 39.2 °F 32.5 °F 28.4 °F 65% 30.36 in 10.0 mi NNE 10.4 mph - N/A   Clear
11:15 PM 39.2 °F 33.0 °F 28.4 °F 65% 30.36 in 10.0 mi NE 9.2 mph - N/A   Clear
11:35 PM 39.2 °F 32.0 °F 28.4 °F 65% 30.36 in 10.0 mi NE 11.5 mph - N/A   Clear
11:55 PM 39.2 °F 31.2 °F 28.4 °F 65% 30.35 in 10.0 mi NNE 13.8 mph - N/A   Clear